Weather reports worldwide

Advertisment
Aultbea, United Kingdom (3034): temperature & dewpoint: 16.07.2019 20:00:00 - 22.07.2019 20:00:00 (BST)Aultbea, United Kingdom (3034): temperature -20cm & temperature -100cm: 16.07.2019 20:00:00 - 22.07.2019 20:00:00 (BST)Aultbea, United Kingdom (3034): wind speed & gusts: 16.07.2019 20:00:00 - 22.07.2019 20:00:00 (BST)Aultbea, United Kingdom (3034): wind direction: 16.07.2019 20:00:00 - 22.07.2019 20:00:00 (BST)Aultbea, United Kingdom (3034): reduced air pressure: 16.07.2019 20:00:00 - 22.07.2019 20:00:00 (BST)Aultbea, United Kingdom (3034): visibility: 16.07.2019 20:00:00 - 22.07.2019 20:00:00 (BST)Aultbea, United Kingdom (3034): precipitation: 16.07.2019 20:00:00 - 22.07.2019 20:00:00 (BST)
Date & Time tt [°C] td [°C] tt -20cm [°C] tt -100cm [°C] ff [km/h] ff [kn] fx [km/h] fx [kn] dd ppp [hPa] vv [km] rr [mm]
22.07.2019 20:00:00 16,3 15,7 - - 28 15 - - S 1008,8 7 2,6
22.07.2019 19:00:00 16,1 15,4 - - 34 18 50 27 SSW 1008,7 4,5 1,4
22.07.2019 18:00:00 16,1 15,4 - - 35 19 50 27 SSW 1008,2 5 1,8
22.07.2019 17:00:00 16,2 15,4 - - 31 17 52 28 SSW 1007,8 9 0,0
22.07.2019 16:00:00 16,3 15,4 - - 39 21 57 31 SSW 1007,4 22 0,0
22.07.2019 15:00:00 16,4 15,5 - - 41 22 59 32 SSW 1006,9 8 0,0
22.07.2019 14:00:00 16,1 15,1 - - 34 18 48 26 SSW 1006,3 11 0,0
22.07.2019 13:00:00 16,1 15,3 - - 34 18 46 25 SSW 1005,7 26 0,2
22.07.2019 12:00:00 15,7 15,4 - - 11 6 - - S 1005,2 3,4 0,6
22.07.2019 11:00:00 14,7 14,2 - - 8 4 - - S 1004,8 5 2,4
22.07.2019 10:00:00 14,5 13,6 17,2 15,2 8 4 - - SSW 1004,6 4,9 0,6
22.07.2019 09:00:00 15,0 13,3 - - 11 6 - - S 1004,2 30 0,0
22.07.2019 08:00:00 15,1 13,1 - - 13 7 - - SSE 1004,3 18 0,0
22.07.2019 07:00:00 15,1 13,3 - - 9 5 - - SE 1004,0 35 0,0
22.07.2019 06:00:00 14,8 13,1 - - 9 5 - - SE 1003,7 45 0,2
22.07.2019 05:00:00 14,4 13,4 - - 11 6 - - ESE 1003,6 27 0,0
22.07.2019 04:00:00 14,8 13,3 - - 18 10 - - S 1003,4 29 0,2
22.07.2019 03:00:00 15,4 14,0 - - 28 15 - - SSW 1003,3 24 0,0
22.07.2019 02:00:00 16,2 14,6 - - 28 15 54 29 SW 1002,9 40 0,0
22.07.2019 01:00:00 16,5 14,7 - - 37 20 59 32 S 1003,0 15 0,0
22.07.2019 00:00:00 16,5 15,2 - - 37 20 54 29 SSW 1003,0 35 0,0
21.07.2019 23:00:00 16,6 14,5 - - 34 18 48 26 SSW 1003,0 35 0,0
21.07.2019 22:00:00 16,7 13,5 - - 35 19 59 32 S 1003,3 30 0,0
21.07.2019 21:00:00 17,5 14,1 - - 46 25 68 37 S 1003,6 30 0,0
21.07.2019 20:00:00 16,5 13,8 - - 22 12 - - S 1003,6 50 0,2
21.07.2019 19:00:00 15,7 13,6 - - 13 7 - - S 1004,7 8 0,4
21.07.2019 18:00:00 16,4 12,9 - - 9 5 - - SE 1005,7 50 0,2
21.07.2019 17:00:00 15,8 13,3 - - 15 8 - - S 1007,2 18 0,2
21.07.2019 16:00:00 17,1 11,3 - - 24 13 - - S 1008,1 40 0,0
21.07.2019 15:00:00 17,4 12,0 - - 24 13 - - S 1009,1 40 0,0
21.07.2019 14:00:00 16,2 11,9 - - 31 17 46 25 S 1010,0 45 0,0
21.07.2019 13:00:00 16,5 12,0 - - 22 12 - - S 1010,1 40 0,0
21.07.2019 12:00:00 16,4 12,5 - - 26 14 - - S 1010,2 35 0,0
21.07.2019 11:00:00 16,0 12,5 - - 28 15 - - SSW 1010,2 30 0,0
21.07.2019 10:00:00 15,8 12,3 17,7 15,2 24 13 - - S 1010,0 45 0,0
21.07.2019 09:00:00 15,2 12,1 - - 22 12 - - S 1009,9 40 0,0
21.07.2019 08:00:00 14,6 11,9 - - 22 12 - - S 1009,5 50 0,0
21.07.2019 07:00:00 14,0 11,9 - - 18 10 - - S 1009,4 45 0,0
21.07.2019 06:00:00 13,7 12,0 - - 22 12 - - SSW 1009,2 45 0,0
21.07.2019 05:00:00 13,9 12,0 - - 28 15 - - SSW 1008,8 45 0,0
21.07.2019 04:00:00 13,9 12,1 - - 21 11 - - SSW 1008,7 50 0,0
21.07.2019 03:00:00 14,0 12,6 - - 22 12 - - SSW 1008,5 45 0,8
21.07.2019 02:00:00 13,7 12,4 - - 22 12 - - SSW 1008,5 8 0,2
21.07.2019 01:00:00 14,2 12,2 - - 24 13 - - SSW 1008,3 40 0,0
21.07.2019 00:00:00 14,0 12,4 - - 22 12 - - SSW 1008,0 45 0,2
20.07.2019 23:00:00 13,7 12,3 - - 24 13 - - SW 1008,0 5 0,0
20.07.2019 22:00:00 14,5 11,3 - - 24 13 - - SSW 1007,5 40 0,0
20.07.2019 21:00:00 15,6 11,3 - - 15 8 - - WSW 1006,9 45 0,0
20.07.2019 20:00:00 15,5 11,5 - - 13 7 - - WSW 1006,4 40 0,0
20.07.2019 19:00:00 15,5 11,6 - - 18 10 - - WSW 1006,1 45 0,0
20.07.2019 18:00:00 17,0 10,6 - - 18 10 - - WSW 1005,5 50 0,0
20.07.2019 17:00:00 17,5 11,8 - - 21 11 - - W 1005,3 50 0,0
20.07.2019 16:00:00 16,8 11,4 - - 16 9 - - W 1004,7 45 0,0
20.07.2019 15:00:00 16,9 11,4 - - 16 9 - - W 1004,1 35 0,0
20.07.2019 14:00:00 17,8 12,7 - - 11 6 - - WSW 1003,5 30 0,0
20.07.2019 13:00:00 16,1 12,7 - - 9 5 - - WNW 1002,9 45 0,0
20.07.2019 12:00:00 14,7 13,2 - - 9 5 - - W 1002,6 35 0,0
20.07.2019 11:00:00 13,6 13,1 - - 9 5 - - W 1002,0 8 0,2
20.07.2019 10:00:00 13,1 12,8 17,4 15,0 9 5 - - WNW 1001,3 5 0,2
20.07.2019 09:00:00 13,1 12,8 - - 9 5 - - WNW 1000,8 5 0,4
20.07.2019 08:00:00 13,3 13,0 - - 11 6 - - WNW 1000,3 4,6 0,2
20.07.2019 07:00:00 13,3 13,0 - - 8 4 - - WNW 1000,0 11 0,2
20.07.2019 06:00:00 13,2 12,6 - - 5 3 - - NW 1000,0 22 0,0
20.07.2019 05:00:00 13,2 12,5 - - 5 3 - - WNW 999,8 9 0,0
20.07.2019 04:00:00 13,3 12,3 - - 5 3 - - E 999,9 29 0,0
20.07.2019 03:00:00 13,4 12,2 - - 2 1 - - N 1000,4 26 0,0
20.07.2019 02:00:00 13,4 11,8 - - 8 4 - - N 1000,7 16 0,0
20.07.2019 01:00:00 13,6 11,6 - - 4 2 - - N 1000,9 24 0,0
20.07.2019 00:00:00 14,0 11,1 - - 9 5 - - N 1001,3 30 0,0
19.07.2019 23:00:00 13,8 10,9 - - 8 4 - - N 1001,7 40 0,0
19.07.2019 22:00:00 14,3 11,1 - - 4 2 - - NNE 1002,0 40 0,0
19.07.2019 21:00:00 15,4 11,4 - - 9 5 - - NE 1002,1 30 0,0
19.07.2019 20:00:00 15,9 10,8 - - 8 4 - - N 1002,2 35 0,0
19.07.2019 19:00:00 15,6 11,4 - - 11 6 - - WNW 1002,5 27 0,0
19.07.2019 18:00:00 17,2 10,0 - - 11 6 - - SW 1002,8 45 0,0
19.07.2019 17:00:00 17,6 10,6 - - 11 6 - - SSW 1003,0 35 0,0
19.07.2019 16:00:00 17,4 9,8 - - 18 10 - - SW 1003,5 30 0,0
19.07.2019 15:00:00 17,2 10,5 - - 18 10 - - SSW 1003,6 30 0,0
19.07.2019 14:00:00 16,8 10,7 - - 21 11 - - SSW 1003,7 45 0,0
19.07.2019 13:00:00 17,5 11,2 - - 21 11 - - SSW 1003,7 16 0,0
19.07.2019 12:00:00 16,9 11,1 - - 22 12 - - SSW 1003,7 45 0,0
19.07.2019 11:00:00 15,7 10,3 - - 22 12 - - S 1003,6 40 0,0
19.07.2019 10:00:00 14,9 11,2 17,0 15,0 22 12 - - S 1003,6 35 0,0
19.07.2019 09:00:00 14,1 11,0 - - 21 11 - - SSW 1003,6 35 0,0
19.07.2019 08:00:00 14,3 11,6 - - 21 11 - - S 1003,5 24 0,0
19.07.2019 07:00:00 13,0 11,7 - - 22 12 - - SSW 1003,2 24 0,0
19.07.2019 06:00:00 13,0 11,3 - - 18 10 - - S 1003,1 30 0,2
19.07.2019 05:00:00 13,3 11,5 - - 22 12 - - SSW 1003,0 9 0,0
19.07.2019 04:00:00 13,5 11,5 - - 26 14 - - SSW 1002,9 30 0,0
19.07.2019 03:00:00 13,5 11,5 - - 26 14 - - SSW 1002,9 27 0,0
19.07.2019 02:00:00 13,5 11,6 - - 24 13 - - SSW 1003,0 25 0,0
19.07.2019 01:00:00 13,7 11,6 - - 26 14 - - SSW 1003,0 22 0,0
19.07.2019 00:00:00 13,8 11,6 - - 28 15 - - SSW 1003,0 25 0,0
18.07.2019 23:00:00 13,8 12,0 - - 21 11 - - SSW 1003,0 20 0,0
18.07.2019 22:00:00 13,8 12,0 - - 22 12 - - SSW 1002,9 19 0,0
18.07.2019 21:00:00 14,0 11,4 - - 18 10 - - SW 1002,6 30 0,0
18.07.2019 20:00:00 14,3 11,9 - - 18 10 - - WSW 1002,4 26 0,0
18.07.2019 19:00:00 15,2 12,1 - - 21 11 - - WSW 1002,0 26 0,0
18.07.2019 18:00:00 15,2 13,0 - - 18 10 - - SW 1001,7 30 0,2
18.07.2019 17:00:00 14,3 12,2 - - 18 10 - - SW 1001,5 19 0,0
18.07.2019 16:00:00 14,9 12,4 - - 26 14 - - SW 1001,2 30 0,2
18.07.2019 15:00:00 14,6 13,1 - - 26 14 - - SSW 1001,0 19 0,8
18.07.2019 14:00:00 16,0 12,5 - - 24 13 - - SSW 1001,0 21 0,0
18.07.2019 13:00:00 16,4 12,0 - - 34 18 46 25 SSW 1000,9 24 0,0
18.07.2019 12:00:00 16,7 12,1 - - 31 17 - - SSW 1000,7 18 0,0
18.07.2019 11:00:00 15,4 11,7 - - 26 14 - - SSW 1000,7 25 0,0
18.07.2019 10:00:00 15,3 12,8 17,0 15,0 26 14 - - SSW 1000,7 14 0,0
18.07.2019 09:00:00 14,1 12,5 - - 21 11 - - SSW 1000,9 18 0,4
18.07.2019 08:00:00 13,3 12,2 - - 22 12 - - S 1000,8 9 0,4
18.07.2019 07:00:00 13,1 11,8 - - 24 13 - - S 1000,6 11 0,2
18.07.2019 06:00:00 13,5 11,5 - - 18 10 - - S 1000,8 30 0,0
18.07.2019 05:00:00 13,3 11,4 - - 21 11 - - S 1001,0 30 0,0
18.07.2019 04:00:00 13,3 11,7 - - 16 9 - - SSW 1001,2 27 0,0
18.07.2019 03:00:00 13,2 12,0 - - 18 10 - - S 1002,0 27 0,0
18.07.2019 02:00:00 13,3 12,5 - - 18 10 - - S 1002,4 21 0,2
18.07.2019 01:00:00 13,5 11,9 - - 18 10 - - S 1002,4 30 0,0
18.07.2019 00:00:00 13,2 11,8 - - 24 13 - - S 1002,6 30 0,0
17.07.2019 23:00:00 13,2 12,2 - - 16 9 - - SW 1002,9 26 0,6
17.07.2019 22:00:00 14,2 11,7 - - 22 12 - - SW 1003,2 27 0,0
17.07.2019 21:00:00 14,5 11,9 - - 16 9 - - SW 1003,1 28 0,0
17.07.2019 20:00:00 15,1 12,1 - - 21 11 - - WSW 1003,0 27 0,0
17.07.2019 19:00:00 14,5 12,9 - - 18 10 - - WSW 1002,9 45 0,2
17.07.2019 18:00:00 14,7 14,0 - - 26 14 - - SSW 1002,6 2,6 0,4
17.07.2019 17:00:00 15,5 13,5 - - 37 20 55 30 S 1002,6 27 0,0
17.07.2019 16:00:00 15,6 13,4 - - 29 16 - - S 1002,8 22 0,2
17.07.2019 15:00:00 16,2 13,3 - - 28 15 - - S 1003,1 45 0,2
17.07.2019 14:00:00 15,0 13,6 - - 22 12 - - S 1003,7 11 0,8
17.07.2019 13:00:00 15,3 13,4 - - 24 13 - - S 1004,0 23 0,8
17.07.2019 12:00:00 15,2 12,8 - - 24 13 - - S 1004,4 11 0,4
17.07.2019 11:00:00 16,1 11,8 - - 29 16 - - S 1004,9 19 0,0
17.07.2019 10:00:00 15,9 13,1 17,7 15,0 22 12 - - S 1005,5 29 0,4
17.07.2019 09:00:00 15,5 13,0 - - 22 12 - - S 1006,2 15 0,0
17.07.2019 08:00:00 15,4 13,2 - - 13 7 - - S 1006,8 27 0,4
17.07.2019 07:00:00 14,1 13,0 - - 8 4 - - E 1007,7 17 0,2
17.07.2019 06:00:00 13,8 13,2 - - 4 2 - - E 1008,5 17 0,6
17.07.2019 05:00:00 14,2 13,0 - - 11 6 - - SSE 1009,3 9 0,2
17.07.2019 04:00:00 14,4 12,7 - - 8 4 - - SSE 1010,0 45 0,0
17.07.2019 03:00:00 14,4 12,7 - - 9 5 - - SSE 1010,9 35 0,2
17.07.2019 02:00:00 14,6 12,4 - - 15 8 - - S 1011,9 15 0,2
17.07.2019 01:00:00 15,9 11,4 - - 15 8 - - S 1012,2 28 0,0
17.07.2019 00:00:00 16,1 11,5 - - 15 8 - - S 1012,5 40 0,0
16.07.2019 23:00:00 15,7 12,1 - - 18 10 - - SSW 1013,2 40 0,0
16.07.2019 22:00:00 15,9 12,6 - - 15 8 - - SSW 1013,6 30 0,0
16.07.2019 21:00:00 16,5 12,8 - - 21 11 - - SSW 1013,9 30 0,0
16.07.2019 20:00:00 17,2 12,5 - - 22 12 - - SSW 1014,2 26 0,0

tt = temperature
td = dewpoint
tt -20cm = temperature -20cm
tt -100cm = temperature -100cm
ff = wind speed
fx = gusts
dd = wind direction
ppp = reduced air pressure
vv = visibility
rr = precipitation

Next stations